www.pogodaiklimat.ru

Погода и климат >> Архив погоды >> Россия >> Камчатский край >> Большерецк


ПОГОДА в Большерецке

  • Прогноз погоды в Большерецке
  • Монитор погоды в Большерецке

АРХИВ ПОГОДЫ в Большерецке

Время (UTC), дата Ветер
(напр.,м/с)
 
Видим.   Явления Облачность Т
(С)
Тd
(С)
f
(%)
Тe
(С)
Тes
(С)
Комфортность P
(гПа)
Po
(гПа)
Тmin
(С)
Tmax
(С)
R
(мм)
R24
(мм)
S
(см)
09 11.02 СВ 2 20 км в посл. час ливневой снег 4/4 600 м
[Cb cap]
-15.5 -16.7 90 -21 -21 1005.7 1001.7 -11.5 3
12 11.02 штиль 0 20 км {ливн. осадки} ясно -16.3 -17.6 90 -16 -16 1006.7 1002.7
15 11.02 штиль 0 20 км 8/8 600 м
[Sc]
-17.5 -19.0 88 -18 -18 1007.2 1003.1
18 11.02 штиль 0 10 км слаб. ливневой снег 10/10 600 м
[Cb cap]
-15.2 -16.3 91 -15 -15 1007.6 1003.6
21 11.02 Ю 2 20 км слаб. ливневой снег 9/9 600 м
[Cb cap]
-14.1 -15.2 91 -19 -19 1008.1 1004.2 -19.0 2 74
00 12.02 ЮЗ 7-11
{12}
20 км слаб. ливневой снег {метель} 10/10 600 м
[Cb cap]
-8.2 -9.2 92 -17 -17 1009.3 1005.4
03 12.02 Ю 4-11
{12}
50 км позёмок {ливн. осадки} 8/8 600 м
[Cb cap]
-9.0 -11.1 85 -16 -15 1009.9 1006.0
06 12.02 ЮЗ 6-10
{13}
20 км позёмок {ливн. осадки} 9/9 600 м
[Cb cap]
-8.6 -11.0 83 -17 -17 1010.4 1006.5
09 12.02 Ю 4
{11}
20 км {метель} 9/9 600 м
[Cb cap]
-9.6 -11.0 90 -17 -17 1011.4 1007.5 -7.3 3
12 12.02 ЮВ 2 20 км {метель} 10/10 600 м
[Cb cap]
-11.5 -14.1 81 -16 -16 1012.6 1008.6
15 12.02 ЮВ 5 20 км слаб. ливневой снег 10/10 600 м
[Cb cap]
-12.4 -13.8 89 -20 -20 1013.1 1009.1
18 12.02 ЮВ 5 20 км слаб. ливневой снег 10/10 600 м
[Cb cap]
-11.6 -12.6 92 -20 -20 1013.4 1009.4
21 12.02 В 3 50 км {ливн. осадки} 4/4 600 м
[Cb calv]
-14.6 -16.5 85 -21 -21 1013.4 1009.4 -14.6 0.9 73
00 13.02 СВ 2 50 км {ливн. осадки} 10/5 600 м
[Sc Ci fib]
-12.5 -16.3 73 -17 -16 1013.5 1009.5 -16.3
03 13.02 СВ 5 50 км 10/0
[Ci fib]
-8.6 -17.0 51 -16 -15 1010.6 1006.7
06 13.02 СВ 4 50 км 10/10 600 м
[Sc]
-9.5 -16.3 58 -16 -16 1007.5 1003.6
09 13.02 С 5-10
{10}
20 км позёмок 10/10 600 м
[Sc]
-9.4 -14.9 64 -17 -17 1003.6 999.7 -8.3
12 13.02 С 5
{10}
20 км {метель} 10/10 600 м
[Sc]
-9.9 -14.8 67 -18 -18 999.2 995.3
15 13.02 С 6 20 км 10/10 600 м
[Sc]
-9.3 -13.1 74 -18 -18 994.4 990.6
18 13.02 С 4 20 км 10/10 600 м
[Sc]
-8.1 -12.6 70 -15 -15 990.6 986.8
21 13.02 штиль 0 50 км 10/10 600 м
[Sc]
-9.2 -13.5 71 -10 -10 988.5 984.7 -10.3 71
00 14.02 СВ 3 20 км 10/10 600 м
[Sc]
-8.7 -14.2 64 -14 -14 986.7 982.9
03 14.02 С 9-11
{12}
20 км позёмок 10/10 600 м
[Sc]
-6.1 -10.3 72 -15 -15 983.7 979.9
06 14.02 СЗ 8-13
{16}
50 км позёмок {ливн. осадки} 10/10 600 м
[Cb cap]
-7.0 -8.1 92 -16 -16 982.7 978.9
09 14.02 СЗ 9-15
{15}
20 км позёмок 10/10 600 м
[Cb cap]
-8.6 -10.1 89 -19 -19 982.3 978.5 -6.1 0.0
12 14.02 СЗ 11-15
{18}
10 км позёмок 10/10 600 м
[Cb cap]
-10.2 -11.2 92 -21 -21 983.8 980.0
15 14.02 С 12-16
{16}
10 км слаб. ливневой снег {метель} 10/10 600 м
[Cb cap]
-12.4 -13.7 90 -24 -24 985.0 981.2
18 14.02 С 13-20
{20}
2000 м слаб. ливневой снег {метель} 10/10 600 м
[Cb cap]
-13.1 -14.6 88 -26 -26 986.4 982.6
21 14.02 С 9-10
{19}
10 км слаб. ливневой снег {метель} 10/10 600 м
[Cb cap]
-13.3 -16.0 80 -24 -24 987.6 983.8 -13.4 0.8 68
00 15.02 С 10-10
{16}
20 км позёмок {ливн. осадки} 10/10 600 м
[Cb cap]
-12.4 -16.1 74 -24 -24 989.1 985.2
03 15.02 С 8-10
{15}
20 км позёмок 9/9 600 м
[Sc]
-11.2 -14.6 76 -21 -21 989.7 985.9
06 15.02 С 6-10
{12}
20 км {метель} 9/9 600 м
[Sc]
-11.9 -14.8 79 -21 -21 991.1 987.2
09 15.02 СЗ 3
{10}
20 км слаб. ливневой снег 9/9 600 м
[Cb cap]
-12.0 -14.9 79 -18 -18 992.3 988.4 -11.1 0.0
12 15.02 С 2 20 км слаб. ливневой снег 9/9 600 м
[Cb cap]
-13.6 -16.2 81 -18 -18 992.2 988.3
15 15.02 С 1 20 км слаб. ливневой снег 10/10 600 м
[Cb cap]
-12.6 -13.8 91 -15 -15 991.8 987.9
18 15.02 СЗ 3 20 км слаб. ливневой снег 10/10 600 м
[Cb cap]
-10.4 -11.8 89 -16 -16 991.6 987.7
21 15.02 СЗ 2 4000 м слаб. ливневой снег 10/10 300 м
[Cb cap]
-9.9 -10.7 94 -14 -14 991.5 987.6 -14.1 3 73
00 16.02 СЗ 4 50 км в посл. час ливневой снег 8/8 600 м
[Cb cap]
-8.4 -10.2 87 -15 -15 991.3 987.5
03 16.02 СЗ 3 10 км слаб. ливневой снег 9/8 600 м
[Cb cap Ci fib]
-8.6 -10.5 86 -14 -14 990.4 986.5
06 16.02 СЗ 2 10 км слаб. ливневой снег 9/9 600 м
[Cb cap]
-9.1 -10.2 92 -14 -14 990.4 986.6
09 16.02 ЮЗ 2 20 км в посл. час ливневой снег 6/6 600 м
[Cb cap]
-11.2 -12.0 94 -16 -16 990.7 986.8 -7.6 4
12 16.02 З 1 20 км слаб. ливневой снег 9/9 600 м
[Cb cap]
-10.7 -11.6 93 -13 -13 990.5 986.7
15 16.02 З 2 20 км слаб. ливневой снег 10/10 600 м
[Cb cap]
-10.6 -11.3 95 -15 -15 990.5 986.7
18 16.02 З 2 20 км слаб. ливневой снег 10/10 600 м
[Cb cap]
-9.8 -10.9 92 -14 -14 990.5 986.6
21 16.02 Ю 2 20 км в посл. час ливневой снег 8/8 600 м
[Cb cap]
-14.0 -15.7 87 -19 -19 991.5 987.6 -14.5 3 81
00 17.02 Ю 2 50 км {ливн. осадки} 4/4 600 м
[Sc]
-10.9 -14.0 78 -15 -13 992.2 988.3
03 17.02 Ю 4 50 км 4/4 600 м
[Sc]
-10.9 -13.1 84 -18 -17 992.1 988.2
06 17.02 Ю 3 20 км слаб. снег 6/0
[As op]
-11.8 -12.9 92 -18 -18 992.7 988.8
09 17.02 Ю 2 20 км в посл. час снег 6/0
[Ac As]
-14.8 -15.9 91 -20 -20 994.0 990.0 -9.4 0.2
12 17.02 ЮВ 2 20 км {снег} 6/0
[Ac trans]
-15.2 -16.4 91 -20 -20 995.0 991.0
15 17.02 СВ 1 20 км 8/0
[Ac trans]
-21.5 -23.3 85 -25 -25 995.9 991.9
18 17.02 СВ 1 20 км 6/0
[Ac As]
-22.0 -23.9 84 -25 -25 996.7 992.6
21 17.02 СВ 1 20 км 8/8 600 м
[Sc]
-22.9 -24.8 84 -26 -26 998.0 993.9 -23.3 77
00 18.02 ЮВ 2 20 км слаб. снег 9/0
[As op]
-16.3 -17.7 89 -22 -21 999.4 995.4
03 18.02 Ю 4 50 км слаб. снег 4/0
[As op]
-9.4 -11.7 83 -16 -15 999.7 995.8
06 18.02 Ю 2 50 км {снег} 9/3 600 м
[Sc Ac trans]
-10.4 -12.8 83 -15 -15 1001.1 997.2

 

Местоположение метеостанции Большерецк (Камчатский край, Россия): широта 52.83 долгота 156.30 высота над уровнем моря 30 м.

В архиве по умолчанию представлена погода в Большерецке за последнюю неделю. Архивные данные за месяц целиком и за предыдущие месяцы, начиная с января 2011 года, Вы можете получить, выбрав интересующий диапазон дат из раскрывающегося списка и нажав кнопку "Ввод!".


*Определитесь, кто Вы:
робот инопланетянин человек

Внимание! Время в таблицах - всемирное. Для получения местного времени необходимо прибавить поправку, которая равна 12 ч.

Смотрите также архив погоды в соседних городах и на ближайших метеорологических станциях:

Погода в Начиках (Камчатский край, Россия) (99 км)
Погода в Сосновке (Камчатский край, Россия) (137 км)
Погода в Петропавловск-Камч. 2 (Камчатский край, Россия) (150 км)
Погода в Озерной (Камчатский край, Россия) (150 км)
Погода в Петропавловск-Камчатском (Камчатский край, Россия) (155 км)
Погода в Водопадной (Камчатский край, Россия) (161 км)
Погода в Петропавловском Маяке (Камчатский край, Россия) (161 км)
Погода в Соболево (Камчатский край, Россия) (166 км)
Погода в Пущино (Камчатский край, Россия) (188 км)
Погода на Мысе Лопатка (Камчатский край, Россия) (219 км)

Пояснения к столбцам:

Ветер - указаны скорость ветра в м/с - средняя за 10 мин, порывы в срок и между сроками (в фигурных скобках) и направление, откуда дует ветер: С - северный, СВ - северо-восточный, В - восточный, ЮВ - юго-восточный, Ю - южный, ЮЗ - юго-западный, З - западный, СЗ - северо-западный.
Видимость - горизонтальная дальность видимости в метрах или километрах. При видимости от 1 до 10 км при отсутствии осадков обычно наблюдается дымка, при ухудшении видимости до 1 км и менее - туман. В сухую погоду видимость может ухудшаться дымом, пылью или мглою.
Явления - указаны атмосферные явления, наблюдавшиеся в срок или в последний час перед сроком; фигурными скобками обозначены явления, наблюдавшиеся между сроками (за 1-3 часа до срока); квадратными скобками обозначены град или гололедные отложения с указанием их диаметра в мм.
Облачность - указаны через наклонную черту общая и нижняя облачность в баллах и высота нижней границы облаков в метрах; квадратными скобками обозначены формы облаков: Ci - перистые, Cs - перисто-слоистые, Cc - перисто-кучевые, Ac - высококучевые, As - высокослоистые, Sc - слоисто-кучевые, Ns - слоисто-дождевые, Cu - кучевые, Cb - кучево-дождевые. Подробнее классификацию облаков см. в Атласе облаков (PDF).
T - Температура воздуха - температура, измеренная на высоте 2 м над землей.
Td - Температура точки росы - температура, при понижении до которой содержащийся в воздухе водяной пар достигнет насыщения.
f - Относительная влажность воздуха - влажноcть воздуха, измеренная на высоте 2 м над землей.
Te - Эффективная температура - температура, которую ощущает одетый по сезону человек в тени. Характеристика душности погоды. При расчете учитывается влияние влажности воздуха и скорости ветра на теплоощущения человека.
Tes - Эффективная температура на солнце - температура, которую ощущает человек, с поправкой на солнечный нагрев. Характеристика знойности погоды. Зависит от высоты солнца над горизонтом, облачности и скорости ветра. Ночью, в пасмурную погоду, а также при ветре 12 м/с и более поправка равна нулю.
P - Атмосферное давление - приведенное к уровню моря атмосферное давление.
Po - Атмосферное давление - измеренное на уровне метеостанции атмосферное давление.
Tmin - Минимальная температура - минимум температуры воздуха на высоте 2 м над землей.
Tmax - Максимальная температура - максимум температуры воздуха на высоте 2 м над землей.
R - Количество осадков - Количество выпавших осадков за период времени, мм. При наведении курсора мыши на число - период времени, за который выпало указанное количество осадков.
R24 - Количество осадков - Количество выпавших осадков за 24 часа, мм.
S - Снежный покров - Высота снежного покрова, см. При наведении курсора мыши на число - состояние снежного покрова и степень покрытия местности в баллах.